Temp
26 26 25 24 23 23 23 23 24 24 24 24 25 25 25 25 25 25 25 25 24 24 24 24 25 25 25 26 26 26 27 27 27 27 25 23 22 22 22 22 22 22 22 21 21 21 21 21 21 21 21 21 21 21 20 20 20 20 20 20 20 20 20 20 20 20 20 20 20 20 20 20 20 20 20 20 20 20 20 20 20 20 20 20 20
26 26 25 25 24 24 24 24 24 25 24 24 25 25 26 25 25 25 25 25 25 24 24 25 25 25 25 26 26 27 27 28 28 27 26 24 23 22 22 22 22 22 22 22 22 21 21 21 21 21 21 21 21 21 21 21 20 20 20 20 20 20 20 21 21 20 20 20 20 20 20 20 20 20 20 20 20 20 20 20 20 20 20 20 20
26 26 25 25 25 24 24 24 24 24 25 25 25 25 25 25 25 25 25 25 25 25 25 25 25 25 26 26 26 27 27 28 28 28 26 25 23 22 22 23 22 22 22 22 22 21 21 21 21 21 21 21 21 21 21 21 21 21 20 20 20 20 20 20 21 21 21 20 20 20 20 20 20 20 20 20 20 20 20 20 20 20 20 20 20
25 25 25 25 25 24 24 24 24 24 24 24 25 25 25 25 25 25 25 25 25 25 25 26 26 25 26 26 26 27 27 28 28 28 27 25 24 22 22 22 22 22 22 22 22 21 21 21 21 21 21 21 21 21 21 21 21 21 21 21 21 20 20 20 21 21 21 20 20 20 20 20 20 20 20 20 20 20 20 20 20 20 20 20 20
24 24 25 25 25 24 24 24 24 24 24 24 24 25 25 25 25 25 25 25 26 26 25 26 25 25 26 26 26 26 27 28 28 28 27 25 24 23 23 22 22 22 22 22 22 21 21 21 21 21 21 21 21 20 20 20 20 20 21 21 21 20 20 20 20 20 20 20 20 20 20 20 20 20 20 20 20 20 20 20 20 20 20 20 20
24 24 24 25 24 24 24 24 24 24 24 24 24 25 25 25 25 25 25 25 25 25 25 25 25 25 26 26 26 26 27 28 28 27 27 26 25 24 23 23 23 22 22 22 22 22 21 21 21 21 21 21 20 20 20 20 20 20 20 20 20 20 20 20 20 20 20 20 20 20 20 20 20 20 20 20 20 20 20 20 20 20 20 20 20
24 24 24 24 24 25 24 24 24 24 25 25 24 25 25 25 25 25 25 25 25 25 25 25 25 25 25 26 26 26 27 28 27 27 26 25 25 24 24 23 23 23 22 22 22 22 22 21 21 21 21 20 20 20 20 20 20 20 20 20 20 20 20 20 20 20 20 20 20 20 20 20 20 20 20 20 20 20 20 20 20 20 20 20 20
24 24 24 24 24 24 24 24 25 25 25 24 24 25 25 25 25 25 25 25 25 25 25 25 25 25 25 26 27 27 27 28 27 26 25 25 25 24 24 23 23 23 23 22 22 22 22 22 21 21 21 20 20 20 20 20 20 20 20 20 20 20 20 20 20 20 20 20 20 20 20 20 20 20 20 20 20 20 20 20 20 20 20 20 20
24 24 24 25 24 24 24 24 24 25 24 24 24 25 25 25 25 24 24 24 25 25 26 26 25 26 26 27 27 27 27 27 27 26 25 25 24 24 24 24 23 23 23 23 22 22 22 22 22 21 21 21 21 21 21 21 20 20 20 20 20 20 20 20 20 20 20 20 20 20 20 20 20 20 20 20 20 20 20 20 20 20 20 20 20
24 24 24 24 25 25 25 24 24 24 24 24 25 25 25 25 25 24 24 24 25 25 26 26 26 26 26 26 26 26 27 27 26 25 25 25 25 24 24 24 24 23 23 23 23 22 22 22 22 22 22 21 21 21 21 21 21 20 20 20 20 20 20 19 19 20 20 20 20 19 19 19 19 19 19 19 19 19 19 19 19 19 20 20 20
24 24 24 24 25 25 25 24 24 24 24 24 24 25 25 25 24 24 24 24 24 25 26 26 26 27 26 26 26 26 27 26 26 25 25 25 25 25 25 24 24 24 24 24 23 23 22 22 22 22 22 22 21 21 21 21 21 20 20 20 20 20 19 19 19 19 20 20 19 19 19 19 19 19 19 19 19 19 19 19 19 19 19 19 19
24 24 24 24 25 25 24 24 25 24 24 24 24 24 24 24 24 24 24 24 24 25 26 26 26 26 26 26 26 25 26 26 25 25 25 25 25 25 25 25 25 25 25 24 24 23 23 22 22 22 21 21 22 22 21 21 21 20 20 20 20 20 19 20 19 19 19 19 19 19 19 19 19 19 19 19 19 19 19 19 19 19 19 19 19
24 24 24 24 24 25 24 24 24 24 24 24 24 24 24 24 24 24 24 24 25 25 26 26 26 26 26 26 26 26 26 25 25 26 26 25 25 25 26 26 26 25 25 24 24 23 23 23 22 22 22 21 22 22 21 21 21 21 20 19 20 20 20 20 19 19 19 19 19 19 19 19 19 19 19 19 19 20 20 19 20 20 19 19 20
24 24 24 24 24 24 24 24 24 24 24 24 24 24 24 24 24 24 24 25 25 25 26 26 26 27 26 26 26 26 26 26 26 26 26 25 25 26 26 26 27 26 24 24 24 24 24 23 23 22 22 22 21 21 21 21 21 21 20 20 20 20 20 20 20 19 19 19 19 19 19 20 20 19 19 19 19 20 20 20 20 20 20 20 20
24 24 24 24 24 24 24 24 24 24 24 24 24 24 24 24 24 24 25 25 25 25 25 26 27 27 26 26 27 26 26 26 26 27 26 26 25 26 26 26 26 25 25 25 24 24 24 23 23 22 22 22 22 21 21 21 21 21 21 20 20 20 20 20 20 20 19 19 19 19 20 20 20 20 20 20 20 20 20 20 20 20 20 20 20
25 25 24 24 24 24 24 25 24 24 24 24 24 24 24 24 24 25 25 26 26 25 25 26 26 27 26 26 27 27 25 26 27 27 26 26 26 26 25 25 25 25 25 25 25 24 24 23 23 22 22 22 22 22 21 21 22 22 21 21 21 21 20 20 20 20 20 20 20 20 20 20 20 20 20 20 21 21 21 21 21 21 21 21 21
25 25 25 24 24 24 25 25 24 24 24 24 24 25 25 24 24 25 25 26 26 26 26 26 26 26 26 26 27 27 26 27 27 26 26 26 26 26 25 25 25 25 25 25 24 24 24 23 23 22 22 23 22 22 21 21 21 21 21 22 22 22 21 21 21 21 21 21 21 21 21 21 21 21 21 21 21 21 21 21 21 21 21 21 21
25 25 25 25 24 24 25 25 25 24 24 25 25 25 25 24 24 25 25 25 26 26 26 26 26 25 25 25 26 26 27 27 26 25 26 26 26 26 25 25 25 25 25 25 25 25 24 23 23 23 23 23 23 22 22 22 21 21 21 22 22 22 22 22 21 21 21 21 21 21 21 21 21 21 21 21 21 21 21 21 21 21 21 21 21
26 26 25 25 25 24 25 25 25 25 24 25 25 25 25 25 25 25 25 25 25 25 26 26 25 25 25 25 26 26 27 27 26 25 25 25 26 26 26 26 25 25 25 25 25 25 24 24 24 23 23 23 23 22 22 22 22 22 22 22 22 22 22 22 22 21 21 21 21 21 21 20 20 20 20 20 20 20 20 20 20 20 20 20 20
26 26 25 25 25 25 25 25 25 25 25 25 25 25 25 25 25 25 25 25 24 25 26 26 26 25 26 26 26 26 26 26 26 26 26 25 25 26 26 26 26 26 25 26 26 25 24 24 24 23 23 22 23 23 22 22 21 22 22 22 22 22 22 22 21 21 21 21 20 20 20 20 20 20 20 20 20 20 20 20 20 20 20 20 20
26 26 26 25 25 25 25 25 25 25 25 25 25 25 25 25 25 25 24 25 24 24 25 26 26 26 26 25 26 26 26 26 26 26 26 26 25 26 27 26 26 26 26 26 26 25 25 24 24 24 23 23 23 23 23 22 21 21 21 22 22 21 21 21 21 21 21 21 20 20 20 20 20 20 20 20 19 19 19 20 20 20 20 20 20
26 26 26 26 25 25 25 25 25 25 25 26 26 25 25 25 25 25 24 24 24 24 25 25 26 26 26 25 25 26 26 26 26 26 27 26 26 27 27 27 26 26 25 26 26 26 26 25 24 24 24 23 23 23 23 22 22 21 22 22 22 21 21 21 21 21 21 21 21 20 20 20 20 20 20 20 19 19 19 19 19 20 20 20 20
26 26 26 26 26 25 25 25 25 25 25 25 26 26 25 25 25 25 24 24 24 24 25 25 25 26 26 25 25 25 26 26 26 27 27 27 26 27 28 27 27 26 25 25 25 25 26 25 24 25 24 24 23 23 23 22 22 22 22 22 21 21 21 21 21 21 21 21 21 21 20 20 20 20 20 20 20 20 20 19 19 19 19 19 19
27 26 26 26 26 26 26 26 26 25 25 25 26 26 26 25 25 25 24 24 24 24 24 25 25 25 26 26 25 26 26 26 27 27 27 27 26 27 27 27 26 26 25 25 25 25 25 25 25 25 24 24 24 23 23 23 22 22 22 22 21 21 21 21 21 21 21 21 21 21 21 21 21 21 20 20 20 20 20 20 20 20 19 19 19
27 27 27 27 26 26 26 26 26 26 25 25 25 25 25 25 25 25 25 24 24 24 24 25 25 25 26 26 26 26 27 27 27 27 27 26 26 26 27 26 27 26 26 25 26 26 26 25 25 25 24 25 24 23 23 23 22 22 22 22 22 22 22 21 21 21 21 21 21 21 21 21 21 21 21 21 21 21 20 20 20 20 20 20 19
27 27 27 27 27 26 26 26 26 26 25 25 25 25 25 25 25 25 25 25 24 24 24 25 25 25 25 26 27 27 27 27 27 27 27 26 26 26 27 27 27 27 26 25 25 26 26 26 25 25 24 24 24 23 23 23 23 23 22 22 22 22 22 22 21 21 21 21 21 21 21 21 21 21 21 21 21 21 21 20 20 20 20 20 20
27 27 27 28 27 27 26 26 26 26 25 25 25 25 25 25 25 25 25 25 24 24 25 25 25 25 25 26 26 27 27 27 27 27 27 27 27 27 26 26 26 27 26 25 25 25 26 26 26 25 24 24 24 23 23 23 23 23 22 22 22 22 22 22 22 21 21 22 22 22 22 21 21 21 21 21 21 21 21 21 21 20 20 20 20
28 27 27 27 27 27 26 26 26 26 25 25 25 25 25 25 25 25 25 25 25 25 25 25 26 25 25 25 26 26 27 27 27 27 27 27 27 27 26 26 26 26 26 26 25 26 26 26 26 25 24 23 23 23 23 23 23 23 22 22 22 22 22 22 22 22 22 22 22 22 22 22 22 22 22 21 21 21 21 21 21 21 20 20 20
28 28 27 27 27 27 27 26 26 26 26 25 25 25 25 25 25 25 25 25 25 25 25 25 26 25 25 25 25 26 26 26 26 27 26 26 26 26 26 26 25 25 26 26 26 26 27 27 26 25 24 23 23 23 23 22 23 23 22 22 22 22 21 21 22 22 22 22 22 22 22 22 22 22 22 22 21 21 21 21 21 20 20 20 20
28 28 28 27 27 27 27 26 26 26 26 26 25 25 25 25 25 25 25 25 25 25 25 25 25 25 25 25 25 25 25 26 26 26 26 25 25 25 25 25 25 25 26 25 25 26 26 27 26 25 23 23 23 23 23 23 23 22 22 22 22 22 22 21 21 22 22 22 22 22 22 22 22 22 22 22 21 21 21 21 21 20 20 20 20
27 28 28 27 27 27 26 26 26 26 26 26 26 25 25 25 25 25 25 25 25 25 25 25 25 25 25 25 25 25 25 25 25 25 26 25 25 25 25 25 25 25 25 25 25 25 26 26 26 25 23 23 23 23 23 23 22 22 22 22 22 22 21 21 21 22 22 22 22 22 22 22 22 22 22 21 21 21 21 21 20 20 20 20 20
27 27 27 27 27 27 27 27 27 27 26 26 26 25 25 25 25 26 26 25 25 25 25 25 25 25 25 25 25 25 25 25 25 25 25 25 24 25 25 25 25 25 25 25 25 25 25 25 26 25 24 23 23 23 23 23 22 22 22 22 22 21 21 21 21 21 22 22 22 22 22 21 21 21 21 21 21 21 20 20 20 20 19 19 19
27 27 27 27 27 27 27 27 27 27 27 26 26 26 25 25 25 25 26 26 25 25 25 25 26 25 25 25 25 25 24 24 25 25 25 25 24 24 25 25 25 24 24 24 25 25 25 25 25 25 25 24 23 23 23 23 22 22 22 22 21 21 21 22 22 21 21 21 21 21 21 21 21 21 21 21 21 20 20 20 20 19 19 19 19
28 27 27 27 27 27 27 27 27 27 27 26 26 26 26 25 25 25 26 26 25 25 25 25 25 26 25 25 25 25 24 24 24 25 25 25 24 25 25 25 25 24 24 24 24 25 25 25 24 25 25 24 23 23 23 23 23 22 21 22 21 21 21 22 22 22 21 21 21 21 21 21 21 21 21 20 20 20 20 20 19 19 19 19 19
28 27 27 27 27 27 27 27 27 27 27 26 26 26 26 26 25 26 26 26 25 25 25 25 25 25 25 25 25 25 24 24 24 24 25 25 25 25 25 25 25 25 24 24 24 24 25 25 24 24 24 24 23 23 23 23 23 22 22 22 22 21 21 21 22 22 22 21 21 21 21 21 21 21 20 20 20 20 19 19 19 19 19 18 18
28 28 27 27 27 27 27 27 27 27 27 26 26 26 26 26 26 26 26 26 26 26 26 26 25 25 25 25 25 25 25 24 24 24 25 25 25 25 25 25 24 25 24 24 24 24 24 25 24 24 24 24 23 23 23 22 23 22 22 22 21 21 21 22 22 22 22 21 21 21 21 21 20 20 20 20 20 19 19 19 19 18 18 18 18
29 28 27 27 27 27 26 27 27 26 27 26 26 26 26 26 26 26 26 26 26 26 26 26 26 25 25 25 25 25 25 25 24 24 24 25 25 25 25 24 24 24 24 24 24 23 24 24 24 24 24 24 23 23 22 22 22 22 22 21 21 21 21 21 22 22 22 21 21 21 20 20 20 20 19 20 19 19 19 19 18 18 18 18 17
29 29 28 27 27 27 26 26 27 26 26 26 26 26 27 27 26 26 26 26 26 26 26 26 26 25 25 25 25 25 25 25 24 24 24 24 24 25 24 24 24 24 24 24 24 23 23 23 24 24 24 24 23 23 22 22 22 22 22 21 21 21 21 21 22 22 22 21 21 20 20 20 20 19 19 19 19 19 19 18 18 18 18 17 17
29 29 29 28 27 27 26 26 26 26 26 26 26 26 27 27 27 26 26 26 26 26 26 26 26 26 25 25 25 25 25 25 25 24 24 24 24 24 24 24 24 24 24 24 24 23 23 23 23 24 24 23 23 23 23 22 22 22 22 22 22 21 21 21 21 21 22 21 21 21 21 21 20 20 20 19 19 19 18 18 18 18 18 17 17
29 29 29 28 27 27 27 26 26 26 26 26 26 26 26 27 27 26 26 26 26 26 26 26 26 26 26 25 25 25 25 25 25 25 24 24 24 24 24 24 24 24 24 24 24 23 23 23 23 23 24 23 23 23 23 22 22 22 22 22 22 22 21 21 21 21 21 20 21 22 22 21 21 20 20 19 19 19 19 19 18 18 18 17 17
29 29 29 29 28 27 27 27 27 27 26 26 26 26 26 26 27 27 26 26 27 27 26 26 26 26 26 26 26 26 26 25 25 25 24 24 24 24 24 24 24 24 24 24 24 23 23 24 24 24 24 23 23 23 23 22 22 22 22 22 22 22 22 21 21 20 20 20 21 21 21 21 21 21 20 20 19 19 19 19 18 18 17 17 16
29 29 29 29 29 28 27 27 27 27 27 27 27 26 26 26 26 27 27 26 27 27 27 26 26 26 26 26 26 26 26 25 25 25 24 24 24 24 24 24 23 23 23 23 24 23 23 24 24 24 24 24 24 23 23 23 22 22 22 22 22 21 22 21 21 20 20 20 20 20 20 20 20 20 20 20 20 20 19 19 18 17 17 17 17
29 29 29 29 29 29 28 27 27 27 27 27 27 26 26 26 26 27 27 27 26 27 27 26 26 26 26 27 27 26 26 26 25 25 24 24 24 24 24 24 23 23 23 23 23 23 23 24 24 24 24 24 24 24 24 23 23 22 22 22 22 21 22 22 21 21 20 20 20 20 20 20 20 20 20 20 19 20 19 19 18 18 18 17 17
29 29 28 28 29 29 28 28 28 27 27 27 27 26 26 26 26 26 27 27 27 26 27 27 26 26 26 26 27 27 26 26 25 25 24 24 24 24 24 24 23 23 23 23 23 23 23 23 24 24 24 24 24 24 24 24 23 22 22 22 22 21 21 22 22 21 21 20 20 19 20 20 20 20 20 20 20 20 20 19 18 18 18 17 17
28 28 28 28 28 28 28 28 28 28 28 27 27 27 26 26 26 26 27 27 27 27 26 26 26 26 26 26 27 27 26 26 25 25 24 24 24 24 24 23 23 23 23 23 23 23 23 23 23 24 24 24 24 24 24 24 23 23 22 22 22 21 21 21 22 22 21 20 19 19 20 20 20 20 21 20 20 20 19 19 18 18 18 17 17
28 28 28 28 28 28 28 28 28 28 28 28 27 27 26 26 26 26 26 26 27 27 27 26 26 26 26 26 26 26 26 26 25 24 24 23 23 23 23 23 23 23 23 23 23 23 23 23 23 23 23 23 23 23 23 23 23 23 22 22 22 22 22 21 21 21 20 19 19 20 20 20 20 21 21 21 20 20 19 19 18 18 18 17 17
28 28 28 28 28 27 28 28 28 28 28 28 28 27 26 26 26 26 26 26 26 27 26 26 26 26 26 26 26 26 26 26 25 24 24 23 23 23 23 22 22 22 22 22 22 22 22 22 23 23 23 23 23 23 23 22 22 22 22 22 22 21 21 21 20 20 20 20 19 19 19 20 20 20 20 20 20 20 20 19 19 18 18 17 17
28 28 28 28 28 27 27 28 28 28 28 28 28 27 27 26 26 26 25 25 26 26 26 26 26 26 26 26 26 26 26 26 25 24 24 23 23 22 22 22 22 22 22 22 22 22 22 22 22 23 23 23 23 23 22 22 21 21 21 21 21 20 20 20 20 21 21 20 19 19 20 20 20 20 20 20 20 19 19 19 19 18 18 17 17
29 28 28 28 28 28 28 28 28 28 28 28 28 28 27 26 26 25 25 25 25 25 26 26 26 26 26 26 26 26 26 26 25 24 24 24 23 22 22 22 22 23 23 23 22 22 22 22 22 23 23 23 23 22 22 21 21 21 21 21 21 21 21 21 21 22 22 21 20 19 20 20 20 20 19 19 19 19 19 19 19 18 18 18 17
29 29 29 29 29 29 28 28 28 28 28 28 28 28 28 27 26 25 25 24 25 25 25 25 26 26 26 26 26 26 26 26 25 24 24 24 23 22 23 22 23 23 23 23 23 22 21 22 22 22 22 22 22 22 22 21 21 20 20 21 21 22 22 22 22 22 22 22 21 20 20 20 20 19 19 19 19 19 19 19 19 18 18 18 18
29 29 29 29 29 29 29 29 28 28 28 28 28 28 28 27 26 25 25 24 25 25 25 25 25 25 26 26 25 25 26 26 25 24 24 24 23 23 23 23 23 23 23 24 23 22 21 21 21 21 21 21 21 21 21 21 20 20 20 20 21 22 22 22 22 22 22 22 21 20 19 19 19 19 19 19 19 19 19 19 19 19 18 18 18
Height
846 847 848 849 850 851 850 850 850 850 850 848 847 847 847 847 848 848 848 849 849 849 849 849 849 849 849 849 849 848 848 847 848 848 849 851 852 853 853 853 854 854 855 856 856 857 858 859 860 861 862 863 864 865 866 867 867 868 869 869 869 870 870 871 871 872 872 873 873 874 874 875 875 875 876 876 876 876 876 875 875 875 876 876 876
845 846 847 848 849 849 850 850 849 849 849 847 847 847 847 848 848 848 849 849 849 849 849 849 849 850 849 849 849 848 847 846 847 847 848 851 852 853 853 853 854 854 854 855 855 856 857 859 860 861 862 863 863 864 865 866 867 868 869 869 870 871 871 871 872 872 873 873 873 874 874 875 875 875 876 876 876 876 876 876 876 876 876 876 876
845 846 847 848 848 849 849 849 849 848 848 847 847 847 847 848 848 849 849 849 850 849 849 849 849 850 849 849 849 848 847 846 845 846 848 850 851 852 853 853 853 854 854 854 855 855 857 859 860 861 862 862 863 864 865 866 867 867 868 869 870 870 871 872 872 872 873 873 874 874 875 875 875 876 876 876 876 876 876 876 876 876 876 876 876
845 846 846 847 848 848 849 849 849 848 847 847 847 848 848 848 849 849 849 849 849 849 849 849 849 850 849 849 849 849 847 846 845 846 848 850 851 852 853 853 853 854 854 854 855 856 857 859 860 861 862 863 863 864 865 866 866 867 867 868 869 869 870 871 871 872 873 873 874 875 875 875 876 876 876 876 876 876 876 876 876 875 876 875 875
845 846 846 847 847 848 848 848 848 848 847 847 848 848 848 848 849 849 849 850 849 849 849 849 850 850 849 849 849 849 848 847 846 846 848 850 852 853 853 854 853 854 854 854 855 856 857 859 860 860 861 862 863 864 865 865 866 866 867 867 868 869 869 870 870 871 872 873 874 874 875 875 876 876 876 877 876 876 876 876 876 875 875 875 875
845 846 846 846 847 847 848 848 847 847 848 847 847 847 847 848 849 849 850 850 849 850 850 850 850 850 850 849 849 849 847 847 847 847 849 851 852 853 854 854 854 854 855 855 855 856 857 858 859 860 861 862 863 864 864 865 866 866 867 867 868 868 869 869 870 871 872 872 873 874 874 875 876 876 876 877 876 876 876 876 876 875 875 875 874
844 845 845 845 846 846 847 847 846 847 847 847 847 847 847 848 849 850 850 850 850 850 850 850 850 850 850 849 849 849 847 848 848 849 850 852 853 853 853 854 854 855 855 855 855 856 856 857 859 859 860 862 862 863 864 864 865 866 866 867 868 868 868 869 870 870 871 872 873 873 874 874 875 875 875 875 875 875 875 875 875 875 875 874 874
844 844 845 845 846 846 847 847 846 846 847 847 847 847 848 849 849 850 850 850 850 850 850 850 850 850 850 849 848 848 847 848 848 850 852 853 853 853 853 854 854 855 855 856 855 855 856 857 858 859 860 861 862 862 863 864 864 865 866 866 867 868 868 869 869 870 871 871 872 872 873 873 874 874 874 874 874 874 874 874 874 874 874 874 874
843 844 844 845 846 846 847 846 846 846 846 847 847 847 848 848 849 850 850 850 850 850 850 850 850 850 849 848 848 848 848 849 849 851 853 853 854 854 854 854 855 855 855 856 856 856 856 857 858 859 860 861 861 862 862 863 863 864 865 865 866 867 867 868 868 869 870 870 871 872 872 872 873 873 873 873 873 873 873 873 873 873 873 873 873
842 843 844 845 845 845 845 845 845 845 846 847 847 847 847 848 849 850 850 850 850 850 850 849 849 849 849 849 849 849 849 849 851 852 853 854 854 854 854 854 855 855 856 856 856 856 857 857 858 858 859 860 860 861 861 862 862 863 863 864 865 866 866 867 868 868 869 870 870 870 871 871 872 872 871 872 872 872 873 873 873 872 872 872 872
842 843 843 844 844 844 844 844 844 845 845 846 846 847 848 848 849 849 850 850 850 850 850 849 849 849 849 849 850 851 850 850 851 853 853 854 854 854 854 855 855 855 856 856 857 857 857 858 858 858 859 859 860 860 861 861 861 862 862 863 864 865 866 866 867 867 868 869 869 869 870 870 871 870 870 870 871 871 871 871 871 870 870 870 871
841 842 842 843 843 843 843 844 844 845 845 846 846 847 848 849 849 849 849 850 850 850 850 849 849 850 850 850 851 852 851 851 852 853 854 854 855 854 854 855 855 856 856 856 857 857 858 858 858 859 859 859 859 860 860 861 861 862 862 863 863 864 865 866 866 867 867 868 868 868 869 869 869 869 869 869 869 869 869 870 869 869 869 869 869
840 841 842 842 842 842 842 843 844 844 845 845 846 847 848 848 849 849 849 850 850 850 850 850 849 850 851 851 852 852 852 853 853 853 853 855 855 855 855 855 855 856 857 857 857 858 858 858 859 859 860 860 860 860 860 861 861 862 862 862 863 864 864 865 865 866 866 867 867 867 867 867 868 868 868 868 868 869 869 869 868 868 868 868 867
839 840 841 841 841 842 842 843 843 843 844 845 846 847 847 848 848 848 849 850 850 849 849 849 848 849 850 850 851 852 852 852 853 853 853 855 855 855 855 854 854 856 857 858 858 858 858 859 859 859 859 860 860 861 861 861 861 862 862 862 863 864 864 864 865 865 865 866 866 866 866 866 867 867 867 867 867 867 867 867 867 867 867 867 866
837 838 839 840 840 841 841 842 842 843 844 845 845 846 847 847 848 848 849 849 849 849 849 849 848 848 850 850 850 851 853 853 852 853 853 854 855 855 855 855 855 856 857 857 858 858 859 859 860 860 860 860 861 861 861 861 861 862 862 862 863 863 864 864 864 864 864 865 865 865 865 866 866 866 866 866 866 866 866 866 866 866 866 866 866
836 837 838 838 839 839 840 841 842 842 844 845 845 845 846 846 847 848 848 848 848 849 849 849 848 849 851 850 848 851 855 853 851 852 853 854 855 855 856 856 857 857 857 857 858 858 859 859 860 860 860 860 861 861 861 861 861 862 862 862 862 863 863 863 864 864 864 864 864 864 865 865 865 865 865 865 865 865 865 865 865 866 866 865 865
834 835 836 836 837 838 839 840 841 841 842 843 843 844 845 845 846 847 848 847 847 848 849 849 849 850 850 850 850 852 853 850 850 853 853 853 855 855 856 857 857 858 857 858 858 859 859 860 860 860 860 861 861 861 861 862 862 862 862 862 862 862 862 863 863 863 863 864 864 864 865 865 865 865 865 865 865 865 865 865 865 865 865 865 865
832 834 834 835 836 837 838 839 840 840 841 842 842 843 844 844 846 846 847 847 847 847 848 849 850 850 850 850 851 852 849 848 852 855 854 853 854 855 856 856 857 858 858 858 858 859 859 860 860 860 861 861 861 862 862 862 862 862 862 862 862 862 862 862 862 863 863 864 864 864 865 865 865 866 866 866 866 865 865 865 865 865 865 865 865
830 832 833 834 834 836 837 837 838 839 840 841 841 842 843 843 845 846 846 847 847 847 847 848 850 851 851 851 850 850 849 850 852 855 856 856 854 854 855 855 856 857 857 857 857 858 859 859 860 861 861 861 862 862 862 862 862 862 862 862 861 862 862 862 862 863 863 864 864 865 865 865 866 866 866 866 866 866 866 865 865 865 865 865 865
829 830 831 832 833 834 835 836 837 838 838 839 839 841 841 842 844 845 846 846 846 847 847 847 848 849 850 850 850 850 851 851 851 853 855 856 855 853 853 854 855 856 856 856 855 856 858 859 860 860 861 862 862 862 862 862 862 862 862 861 861 862 862 862 863 863 864 864 865 865 865 866 866 866 866 866 866 866 866 865 865 865 864 864 864
826 828 829 830 831 832 833 834 835 836 837 837 838 839 840 841 842 843 845 845 845 846 846 846 847 848 849 850 850 850 850 850 851 852 851 853 854 852 852 853 854 855 855 855 854 855 857 858 859 860 860 861 861 862 862 862 862 861 861 861 861 862 862 862 863 863 864 864 865 865 865 865 865 866 866 866 866 865 865 865 864 864 863 863 863
824 826 827 828 829 830 831 832 833 834 835 836 837 838 838 840 841 842 843 844 845 845 846 847 846 846 847 849 850 850 850 849 849 850 850 851 852 850 849 851 852 854 855 854 854 855 855 857 858 859 859 860 861 861 861 861 861 861 861 861 861 861 862 863 863 864 864 864 864 865 865 865 865 865 865 865 865 865 864 864 863 863 862 862 861
822 824 825 826 827 828 829 830 831 832 834 834 835 836 837 838 839 841 842 843 844 844 845 846 846 846 846 848 849 849 849 849 848 848 847 849 850 848 846 847 849 852 854 854 855 855 855 856 858 858 858 859 860 860 860 861 860 860 860 860 861 861 861 862 863 863 864 864 864 864 864 864 864 864 864 864 864 863 863 862 862 861 861 861 861
819 821 822 823 825 826 827 829 830 831 832 833 834 835 835 837 838 839 840 841 842 843 844 845 845 846 846 846 848 847 847 848 847 847 847 848 849 848 846 848 849 850 853 854 854 855 855 856 857 857 857 858 859 859 860 860 860 859 859 860 860 861 861 861 862 863 863 863 863 863 863 863 863 863 863 862 862 862 862 861 861 861 860 860 860
816 817 819 820 822 824 825 826 827 829 830 831 832 833 834 835 836 837 838 839 840 842 843 844 844 845 845 845 846 846 846 846 846 846 847 848 849 848 847 848 849 849 851 852 852 853 853 854 855 855 856 856 857 859 859 859 859 858 859 859 859 860 860 861 861 862 862 862 862 862 862 862 862 862 861 861 861 861 861 860 860 860 860 859 859
813 814 816 817 819 821 822 824 825 826 828 829 830 831 832 833 835 836 837 838 839 840 842 842 843 844 844 844 844 844 844 845 846 846 846 847 849 848 847 848 847 847 850 851 851 851 851 852 853 853 855 856 856 857 858 858 858 857 858 859 859 859 860 860 860 861 861 861 861 861 861 861 861 861 860 860 860 860 859 859 859 858 858 858 858
810 811 813 815 816 818 819 821 822 824 825 827 828 829 831 832 833 834 835 836 837 838 840 841 841 842 843 843 843 843 843 843 844 845 845 845 846 847 847 849 848 847 848 850 851 851 850 850 851 852 853 855 855 856 856 857 857 857 857 858 858 858 858 859 859 859 860 860 860 860 860 860 860 860 859 859 858 858 858 857 857 856 856 856 856
807 809 810 811 813 815 816 818 820 821 823 824 826 827 828 830 831 832 833 834 835 836 838 839 840 840 841 842 842 842 842 843 843 844 844 844 845 846 846 847 849 849 848 849 849 849 848 848 849 850 852 853 854 854 855 855 855 856 856 857 857 857 857 857 858 858 858 859 859 859 859 859 859 859 858 857 857 856 856 855 855 854 854 854 853
804 805 807 808 810 812 813 815 816 818 820 821 823 824 826 827 829 830 831 832 833 834 835 837 838 839 840 841 841 841 841 842 842 842 843 844 844 845 846 846 848 848 848 849 848 846 845 845 846 849 850 851 852 853 853 854 854 855 855 856 856 856 856 856 856 857 857 857 858 858 858 858 858 858 857 856 855 855 854 853 853 852 852 851 851
801 802 804 805 807 809 810 812 814 815 817 818 820 822 823 825 826 827 829 830 831 832 833 834 836 837 837 838 839 840 840 841 841 841 842 843 844 844 846 846 846 847 847 848 848 845 845 845 845 847 848 849 851 851 852 852 852 853 855 855 855 854 854 855 855 856 856 856 856 857 857 857 857 856 855 855 854 853 852 852 851 851 850 850 849
797 799 801 802 804 806 807 809 811 812 814 815 817 819 820 822 823 825 826 827 829 829 831 832 833 835 835 836 837 838 839 839 840 840 841 842 843 843 844 845 846 846 846 847 848 846 846 845 845 846 847 848 850 850 851 851 851 852 854 854 854 853 853 854 855 855 855 855 855 855 856 856 855 855 854 853 852 852 851 850 850 849 849 848 848
794 795 797 799 801 803 804 806 808 809 811 812 814 816 817 819 820 821 823 825 826 827 828 829 830 832 833 834 835 836 837 837 838 839 839 840 841 842 843 844 844 846 846 847 847 846 846 846 845 846 847 847 848 849 850 850 851 851 852 853 853 853 853 853 853 854 854 854 854 854 854 854 854 853 852 852 851 850 849 848 848 847 847 847 846
790 792 794 795 797 799 801 803 804 806 808 809 811 813 814 816 817 818 820 821 823 824 826 827 827 829 831 832 833 834 835 835 836 837 837 838 839 840 842 842 843 844 845 846 846 845 845 846 845 845 846 847 847 848 849 849 850 850 851 852 852 852 852 852 852 853 853 854 853 853 853 853 852 851 851 850 849 848 848 847 846 846 846 845 845
785 787 789 791 794 796 798 800 801 803 805 806 808 809 811 813 814 815 816 818 820 821 823 824 824 826 828 829 830 832 832 833 834 835 835 836 837 839 840 841 842 842 843 844 845 844 844 845 846 846 845 846 847 847 848 848 848 849 850 851 851 851 851 851 852 851 851 852 852 851 851 851 850 850 849 848 847 847 846 845 845 845 844 844 843
781 783 785 788 790 792 794 796 798 799 801 803 804 806 807 809 811 812 813 814 816 818 819 821 822 823 824 826 827 828 830 830 831 832 833 834 835 836 837 839 840 840 841 842 843 843 843 843 845 846 845 846 846 846 847 847 847 848 848 849 850 850 850 850 850 850 849 850 850 850 850 849 849 848 847 846 846 845 845 844 844 843 843 842 842
776 779 781 784 786 788 790 792 794 796 797 798 800 802 803 805 807 809 810 811 812 814 816 817 819 819 821 822 823 825 826 827 828 830 831 832 833 834 835 836 837 838 839 840 841 842 842 842 843 844 844 845 845 846 846 846 847 847 847 848 848 848 849 849 849 848 848 848 848 848 848 848 847 846 845 845 844 844 843 843 843 842 841 841 840
772 774 777 779 781 783 785 787 789 791 792 794 796 797 799 801 803 805 806 807 808 810 812 814 815 816 817 818 819 821 822 823 825 826 828 829 830 831 833 834 835 836 837 839 840 841 841 841 842 842 843 843 844 845 845 845 846 846 846 846 846 847 847 847 847 847 846 846 846 846 846 846 845 844 844 843 843 842 842 841 841 840 840 839 838
767 769 771 774 776 778 780 782 784 786 788 790 791 793 795 797 798 801 802 804 805 806 808 810 811 812 813 814 815 816 817 818 820 822 824 826 827 829 830 831 833 834 835 836 838 839 839 840 840 841 842 842 843 844 844 844 845 844 844 845 845 845 845 845 845 845 845 844 844 844 844 843 843 843 842 842 841 841 840 840 839 839 838 837 836
762 764 766 769 771 773 775 777 779 781 783 785 787 789 791 793 794 796 798 800 801 802 804 805 807 809 809 810 811 812 813 814 815 817 819 822 824 826 827 829 830 831 833 834 835 836 837 838 838 839 840 841 841 842 842 843 843 843 843 843 843 843 843 843 843 843 843 844 843 842 842 842 841 841 840 840 839 839 838 838 838 837 836 835 835
757 760 762 764 766 769 771 773 776 778 779 781 783 785 787 789 791 792 794 795 797 798 800 801 803 804 805 806 807 808 809 810 811 813 815 817 819 822 824 826 827 829 830 831 832 833 834 835 836 836 837 838 839 839 840 841 841 841 841 841 841 841 841 841 842 842 842 842 842 841 840 840 840 840 838 837 837 837 837 836 836 835 834 834 834
754 756 759 761 763 765 768 770 772 774 775 776 777 779 782 784 786 788 790 791 792 794 795 797 798 800 802 803 803 804 805 805 807 809 810 812 814 817 819 822 824 825 826 828 829 830 831 832 832 833 834 835 836 837 837 837 837 838 838 839 839 839 839 839 840 840 841 841 840 839 839 839 839 839 838 837 836 835 835 834 834 834 833 833 833
750 753 755 758 760 762 764 766 767 769 769 770 771 774 776 779 781 783 785 787 788 790 791 793 794 796 798 799 799 800 801 802 803 805 807 809 810 812 815 817 819 821 823 824 825 826 827 828 829 830 830 831 832 833 834 834 834 835 836 836 837 837 838 838 838 839 839 839 839 838 838 839 838 838 837 836 835 835 834 833 832 832 831 831 831
747 749 751 754 755 757 759 761 762 763 763 764 765 768 771 774 776 778 780 782 783 785 787 788 790 791 793 795 796 796 797 798 799 801 803 806 807 809 811 812 814 816 818 820 821 822 823 824 825 825 826 827 828 829 830 831 832 832 833 834 834 835 836 836 836 837 837 837 838 837 837 837 837 836 835 834 833 833 832 831 831 831 830 830 830
742 745 747 749 750 752 754 755 757 757 758 758 760 762 765 768 771 774 776 777 778 780 781 782 784 786 788 790 791 792 792 792 794 797 799 802 804 806 807 808 810 812 813 815 816 817 819 820 821 821 822 822 824 825 826 827 828 830 831 831 832 833 834 834 834 835 835 835 836 836 836 835 835 834 833 832 831 831 830 830 830 830 829 829 828
737 739 741 743 745 747 749 750 751 752 753 753 754 756 759 761 765 768 770 772 773 774 775 776 778 780 781 783 785 786 786 787 789 792 795 798 800 802 804 805 806 807 809 811 813 814 815 816 817 817 818 819 820 821 823 824 825 827 828 829 829 830 831 832 832 833 833 833 834 834 834 834 833 832 830 829 829 829 828 828 828 828 827 827 827
732 734 736 738 740 742 743 745 746 747 747 749 750 751 754 756 759 762 765 768 769 769 770 771 772 773 775 776 777 779 780 781 783 787 789 792 795 798 800 801 802 803 805 807 809 811 812 813 813 814 815 816 817 818 820 821 822 823 824 825 827 827 828 829 830 831 831 831 832 833 832 832 831 830 828 827 827 827 827 826 826 826 825 825 825
728 730 732 734 735 737 739 740 742 742 742 744 745 746 748 751 754 757 760 762 764 765 766 766 768 768 769 770 771 773 775 776 777 780 784 787 790 792 794 796 798 799 801 802 805 807 809 810 811 812 813 814 815 816 817 819 819 820 821 822 824 825 826 827 828 828 828 828 830 831 830 829 829 828 826 825 825 826 826 825 825 824 823 823 823
724 726 728 730 731 733 735 736 737 736 737 739 740 741 743 746 750 753 755 757 758 759 760 761 763 764 763 764 765 767 770 771 771 774 778 782 784 787 789 791 793 795 796 798 800 803 805 807 808 810 811 811 812 813 815 817 818 818 819 820 822 823 824 825 826 826 825 825 826 828 828 827 827 826 825 824 824 824 824 824 823 822 822 821 821
719 721 723 725 726 728 729 730 731 731 732 734 735 737 739 742 745 747 749 752 753 754 754 755 757 758 758 759 760 762 764 765 765 768 772 777 780 782 784 787 789 790 792 794 796 799 802 804 805 807 808 809 809 811 812 814 816 817 817 818 819 820 822 823 823 823 822 822 823 825 825 825 825 824 823 823 823 823 823 822 821 820 820 820 819
714 716 718 719 720 721 723 724 725 726 727 728 730 732 734 736 739 741 744 746 748 748 749 749 750 751 752 754 756 756 757 758 759 761 765 770 774 777 779 781 783 784 786 789 791 794 797 800 802 804 805 806 807 808 810 812 814 815 816 816 817 818 818 819 819 820 821 820 821 822 823 823 823 823 822 822 821 821 821 821 820 820 819 818 817
710 712 713 714 715 716 717 719 720 721 722 723 725 726 728 731 733 736 739 741 742 741 741 743 744 744 745 748 750 749 750 751 752 754 758 763 766 769 771 773 775 777 779 783 785 787 791 795 797 799 802 803 805 806 807 809 811 813 814 814 815 815 815 815 816 818 819 818 818 819 821 821 821 822 822 821 820 819 819 820 820 819 818 817 816
Wind_Speed
6 6 6 5 4 4 4 3 3 2 2 2 1 1 0 1 1 1 1 2 2 2 1 1 2 1 2 2 2 2 1 3 4 2 7 9 7 6 6 7 7 6 7 7 7 7 7 8 8 8 8 7 7 8 8 7 7 6 6 5 5 5 5 5 5 5 5 5 4 4 4 3 3 3 3 3 3 3 3 3 3 3 3 4 5
6 5 4 4 3 3 2 2 2 2 1 0 2 0 1 1 1 1 1 1 3 4 2 2 2 1 2 2 1 1 2 2 1 3 8 8 8 6 5 7 5 5 6 7 7 7 7 8 8 8 8 7 7 8 8 8 7 7 6 6 5 5 5 5 5 5 5 5 5 5 4 4 4 4 3 3 3 3 4 4 4 4 5 5 5
4 4 4 4 4 3 2 2 2 2 1 1 2 0 1 1 1 1 2 2 2 3 3 3 2 1 1 1 2 2 2 3 2 5 9 8 8 8 6 6 5 4 5 7 8 8 7 7 7 7 7 7 7 7 8 7 7 7 7 6 6 6 6 6 6 5 5 5 5 5 5 5 5 5 4 4 4 4 5 5 5 6 6 6 7
2 3 5 4 4 4 3 2 1 2 1 1 2 1 1 1 1 1 2 2 2 3 3 3 2 1 1 1 3 2 3 3 3 4 8 7 8 8 7 6 5 5 6 6 8 8 7 6 6 6 6 6 6 6 6 7 7 7 8 8 7 7 7 7 7 6 6 6 6 5 6 6 6 6 6 6 6 6 6 7 7 7 7 8 8
4 4 5 5 5 5 4 4 3 2 0 1 1 0 1 0 0 1 1 1 2 3 3 3 2 2 1 2 3 1 2 2 2 3 5 6 7 7 7 8 6 5 5 4 5 6 6 6 6 6 5 6 6 5 6 6 7 7 8 8 8 8 9 8 8 7 7 7 7 7 7 7 7 7 7 7 8 8 8 8 8 8 9 9 9
6 6 7 7 6 5 5 4 3 2 1 1 2 2 0 1 1 1 1 2 3 3 3 3 3 2 2 2 3 1 2 2 2 4 4 4 4 5 6 7 6 6 5 4 3 3 5 7 6 6 5 5 6 6 6 6 6 7 7 8 8 9 9 9 8 7 7 8 8 8 7 8 8 8 9 9 9 9 10 10 10 10 10 10 10
8 7 7 8 8 7 6 5 3 3 1 2 2 2 0 1 1 1 1 2 2 2 3 3 2 2 1 1 3 0 1 3 2 5 6 3 3 5 6 6 7 7 5 4 4 3 3 6 6 6 5 5 5 6 7 7 7 7 7 7 8 8 9 9 9 8 8 8 8 9 8 9 9 10 10 10 10 11 11 11 11 11 11 11 11
10 8 8 8 8 8 6 4 3 2 1 1 2 2 1 1 1 1 2 2 2 2 2 2 1 1 1 1 2 1 2 3 4 6 5 3 3 4 6 6 6 6 5 5 5 4 5 3 5 6 6 5 5 6 7 7 7 8 8 8 8 8 8 9 9 9 9 9 9 9 9 9 10 11 11 11 11 11 11 11 12 12 13 13 13
11 10 9 8 8 8 7 5 4 3 2 2 3 3 2 2 1 1 2 2 2 2 1 1 1 1 1 0 1 3 2 2 5 7 5 3 4 5 6 6 5 5 6 6 5 3 4 4 2 3 5 5 6 6 6 7 8 8 8 9 9 8 8 9 9 9 9 9 10 10 9 10 10 10 11 11 11 11 11 11 12 12 13 14 14
12 11 10 9 9 8 5 5 5 4 3 4 4 3 2 2 1 1 1 2 2 2 1 1 1 1 0 1 1 2 3 3 6 6 3 3 5 6 6 5 5 5 5 5 5 3 2 3 3 3 3 4 4 4 4 6 7 8 8 9 9 8 9 9 8 9 9 9 10 10 9 9 8 8 9 10 9 10 11 11 11 12 12 13 13
12 11 10 9 9 7 5 4 4 4 3 5 5 3 2 2 2 2 2 2 1 2 2 1 1 1 2 2 2 1 1 4 5 3 3 3 4 5 6 6 5 5 5 5 5 3 2 3 3 3 2 2 2 2 2 2 3 5 6 6 6 7 7 7 7 7 7 8 9 9 9 9 9 9 10 9 8 9 10 10 11 11 11 12 13
13 12 11 10 8 8 7 5 4 4 4 5 4 3 3 3 4 4 3 1 0 0 1 2 2 3 2 2 3 2 1 3 3 3 4 4 3 4 6 6 6 5 5 5 5 4 4 4 3 4 2 1 1 1 1 1 1 2 3 3 3 4 5 5 5 5 6 6 8 8 8 8 9 9 10 9 9 9 10 10 10 10 11 12 12
13 13 12 11 9 8 6 5 6 6 6 5 4 3 3 3 3 4 4 2 1 2 1 3 3 4 2 3 3 3 3 3 2 2 4 5 3 3 5 6 7 7 7 6 6 5 5 4 3 4 3 1 1 2 4 4 3 2 2 2 2 2 3 3 3 3 4 4 5 5 6 7 7 8 8 7 8 8 8 9 10 10 10 11 12
14 14 13 12 11 9 6 6 7 6 5 5 5 4 3 4 5 5 4 3 2 1 2 3 3 4 3 4 4 3 3 3 3 3 5 5 4 4 4 5 7 9 8 7 7 6 6 5 5 5 4 3 3 3 4 5 4 3 3 3 3 2 2 2 1 1 2 2 2 2 3 3 3 4 4 4 4 5 5 6 7 8 7 8 9
15 15 14 13 12 11 9 8 7 7 5 5 5 5 5 6 6 6 4 4 3 1 2 4 2 4 4 3 4 4 2 2 4 4 5 5 4 4 4 5 6 7 6 7 7 6 6 6 6 5 5 4 4 4 5 6 4 4 4 4 4 3 3 2 2 2 2 1 1 0 0 0 0 1 1 1 2 3 3 4 4 5 5 6 7
16 16 15 14 13 12 10 8 8 7 7 6 6 6 6 6 7 7 5 4 4 4 3 3 1 4 4 2 2 4 3 4 5 4 5 5 5 4 4 4 5 4 4 6 7 7 6 6 6 5 5 5 5 5 7 6 5 5 5 4 4 4 3 4 4 3 3 3 3 3 3 3 2 2 1 1 1 1 2 2 3 3 4 5 5
16 17 16 14 13 12 10 9 8 8 8 7 6 6 6 6 7 7 7 5 3 4 4 3 2 2 2 2 0 1 2 6 6 3 4 5 5 6 5 4 5 3 3 6 6 6 7 5 5 5 5 5 5 6 6 6 6 5 5 4 4 4 5 5 5 5 5 5 6 6 6 5 4 4 3 2 2 1 1 1 2 2 3 4 5
17 17 17 15 13 13 12 11 10 9 9 7 7 7 6 7 8 8 7 5 3 4 4 5 3 3 4 3 1 1 2 4 4 2 3 4 5 6 6 5 6 5 4 5 6 6 6 5 5 5 5 5 5 6 6 6 6 4 4 4 5 5 6 6 6 6 6 6 6 6 6 5 4 4 2 1 1 0 1 1 2 3 4 4 5
17 18 18 17 14 13 13 13 11 10 10 9 8 8 7 7 9 8 7 6 5 5 4 6 6 5 6 4 4 2 2 2 3 2 3 3 3 5 6 6 6 6 6 5 6 7 6 5 5 5 5 5 5 6 6 6 6 6 6 6 6 6 6 6 6 6 6 5 5 5 5 5 4 3 2 2 2 2 3 3 3 4 5 5 6
18 18 19 18 16 14 14 14 13 12 11 11 10 9 7 7 9 8 7 7 7 6 5 6 7 6 7 6 5 4 1 2 3 2 3 3 3 5 6 7 6 6 6 5 6 9 7 4 5 5 5 5 5 5 6 6 6 6 7 7 7 6 6 6 6 6 5 5 5 4 4 4 3 3 3 4 4 5 5 5 6 6 6 7 7
18 19 19 19 18 16 15 15 14 14 13 12 10 10 9 9 9 10 9 8 8 7 6 6 6 7 8 7 5 4 5 5 5 4 4 3 3 4 5 7 5 5 6 5 5 7 7 7 5 4 5 6 6 5 5 6 6 6 7 7 7 7 6 5 5 5 4 4 3 2 2 2 2 3 3 4 5 5 6 7 7 7 7 7 7
18 19 19 19 19 18 17 16 15 14 14 13 11 11 10 10 11 11 10 10 9 8 8 7 7 7 9 9 7 6 5 5 6 7 6 4 3 5 8 9 7 6 6 6 6 5 6 8 7 5 6 6 6 6 6 7 7 7 8 7 6 6 6 5 4 3 3 2 2 1 0 1 1 2 3 4 5 5 6 7 8 8 8 8 8
17 18 19 19 19 19 18 17 15 15 14 14 13 12 11 11 11 11 12 11 10 10 9 9 9 7 8 10 8 8 7 6 7 7 6 6 5 6 6 7 6 7 7 6 5 6 5 6 6 5 6 6 6 6 7 8 8 9 10 8 7 7 6 5 4 4 3 3 2 2 2 2 2 3 4 4 5 6 7 8 9 9 10 10 10
17 18 19 20 19 19 18 17 16 15 15 14 13 13 12 11 12 12 12 12 11 11 10 10 10 9 9 10 10 9 9 8 8 5 4 4 4 4 2 3 4 5 7 6 7 8 8 7 8 7 6 7 7 7 7 8 9 10 10 9 8 8 8 7 6 6 5 5 4 4 4 4 5 5 6 6 7 8 9 10 11 11 11 12 12
19 19 19 20 20 20 19 18 17 17 16 15 14 13 13 12 12 12 13 13 13 12 12 11 11 11 10 10 10 10 9 8 8 6 6 5 4 5 3 4 5 6 7 7 6 7 8 9 10 9 9 9 8 9 8 9 10 10 9 9 9 9 9 9 9 8 8 7 7 7 7 7 7 8 9 10 11 12 12 13 13 13 13 13 13
20 20 20 20 20 20 20 19 18 17 17 16 15 14 14 13 13 13 13 14 13 13 12 12 12 13 12 11 11 11 10 9 9 8 7 7 7 7 4 4 6 6 8 6 4 6 7 8 8 9 9 9 9 9 10 9 10 11 10 9 9 10 10 11 11 10 10 10 9 9 9 10 10 11 12 13 14 14 15 15 16 16 16 16 15
20 20 20 20 20 20 20 20 19 18 18 17 16 15 15 14 14 14 14 13 13 13 13 13 13 14 13 12 11 10 10 10 10 9 8 8 8 8 6 4 5 4 6 6 6 7 7 6 8 9 10 10 9 9 10 9 10 12 11 9 9 9 10 11 13 13 12 12 11 11 12 12 12 13 14 14 15 16 16 17 17 17 18 17 17
19 20 20 21 21 21 21 21 20 20 19 19 18 17 16 16 15 15 15 14 14 14 14 13 13 14 14 13 12 11 10 10 10 9 9 8 7 7 7 7 5 4 4 6 7 8 10 10 9 9 10 10 10 10 10 10 11 12 11 9 9 9 9 10 12 15 15 14 13 13 13 13 13 13 14 15 16 17 17 18 19 19 19 19 18
20 19 20 21 22 22 22 21 21 21 20 20 20 18 17 17 17 17 17 15 15 15 14 14 14 14 15 15 14 12 10 11 11 10 9 9 7 7 8 9 7 5 4 4 5 7 10 10 9 11 11 10 10 10 10 10 12 11 9 8 8 9 11 10 10 13 14 14 13 13 13 14 13 13 14 16 17 18 19 20 21 21 20 20 19
21 20 20 21 22 23 22 22 22 22 21 21 20 19 19 18 18 18 18 17 16 15 15 15 15 15 15 15 15 14 12 11 11 11 10 10 9 9 9 10 9 7 5 4 4 7 7 5 6 12 13 11 10 10 10 10 11 11 8 7 8 9 10 9 9 11 12 12 12 13 14 13 13 14 15 17 18 19 21 22 23 23 22 21 20
22 22 21 21 22 23 23 23 22 22 22 22 21 20 20 19 19 19 19 18 17 16 16 16 16 16 16 16 16 15 14 13 13 12 11 12 12 11 11 10 10 10 8 5 4 6 7 7 6 9 11 11 10 10 10 9 11 11 8 7 9 10 11 10 10 10 10 11 12 12 13 13 14 15 17 18 19 21 22 23 23 23 22 22 21
22 23 23 22 22 23 23 23 23 23 23 22 21 21 21 20 20 19 19 20 19 18 17 17 16 16 17 17 16 16 15 14 14 13 13 13 13 12 12 12 11 11 10 8 6 6 7 8 7 6 8 10 9 9 10 9 9 10 9 9 10 12 11 10 10 10 10 11 11 12 12 13 14 16 17 19 20 21 21 22 22 21 20 20 20
23 23 24 24 23 23 23 23 23 23 23 23 22 21 21 21 21 20 20 21 21 20 19 18 18 17 17 18 17 17 16 15 14 14 14 14 14 13 13 13 12 12 12 11 9 7 8 8 8 7 8 10 9 10 10 10 9 10 10 10 10 11 10 10 10 11 11 10 11 12 12 13 15 16 18 18 18 19 19 19 19 18 18 18 19
25 25 24 24 24 24 23 23 23 23 23 23 22 22 22 22 21 21 21 22 22 21 20 20 19 19 18 19 19 18 18 17 16 15 15 15 15 15 14 14 13 13 13 13 10 9 9 9 8 8 8 9 9 10 11 11 10 10 10 11 11 10 10 10 11 12 13 13 13 14 14 15 16 17 17 16 16 16 16 16 17 17 17 17 18
26 26 25 24 24 25 25 24 24 23 23 24 23 23 23 23 23 22 22 22 23 23 22 22 21 21 20 20 20 20 19 18 18 17 16 16 16 16 15 15 14 14 14 14 12 10 9 9 9 9 9 9 9 10 11 11 10 11 11 12 11 11 11 11 11 12 13 13 13 14 15 16 16 16 15 15 14 15 16 17 17 17 17 17 18
26 26 26 26 25 26 26 26 25 25 25 25 25 24 25 25 24 24 23 23 24 24 24 23 23 23 22 22 22 22 21 20 19 18 17 17 17 16 16 16 15 14 14 14 13 11 10 9 10 11 10 10 10 10 10 11 11 11 12 12 12 12 12 12 11 11 12 12 12 14 15 15 15 13 13 13 13 14 15 16 16 16 16 17 17
29 28 27 27 27 27 28 28 27 27 27 27 27 26 25 25 26 25 24 24 24 24 25 25 24 24 24 24 23 23 23 22 21 20 19 19 18 17 17 16 16 15 14 14 14 12 11 10 10 11 10 10 11 10 11 11 11 11 12 12 13 13 13 13 12 11 13 13 14 15 15 15 13 11 10 12 13 14 14 14 14 15 15 15 15
31 30 29 29 29 29 29 29 29 29 28 28 28 27 26 26 26 26 26 25 25 25 25 25 25 25 26 26 25 25 25 24 23 22 21 21 20 18 18 17 17 16 15 14 14 14 13 11 11 11 11 10 11 11 12 12 12 11 12 13 13 13 13 13 12 11 11 12 13 13 14 14 11 9 10 12 13 13 12 12 13 14 14 14 13
31 31 30 30 30 30 30 30 30 30 30 29 29 29 28 27 27 27 26 26 26 25 26 26 26 27 27 27 26 26 27 27 25 24 23 23 22 20 19 18 17 17 16 15 15 15 14 13 12 12 12 12 12 12 12 13 13 12 12 12 12 12 13 13 13 12 10 10 11 11 12 12 10 10 13 13 12 11 10 11 12 12 10 10 11
30 30 30 30 29 29 29 29 29 29 30 30 29 29 29 28 27 27 27 27 26 26 26 26 27 28 28 28 27 27 28 28 28 26 25 24 23 21 21 19 18 18 17 16 16 15 15 14 14 13 12 13 13 13 12 13 14 14 13 12 12 11 11 12 14 14 13 11 10 9 8 9 10 12 12 12 12 11 10 12 13 11 9 9 10
28 29 29 29 28 28 28 28 29 29 29 30 30 30 30 29 28 27 27 27 28 27 26 27 27 28 29 28 27 28 29 30 31 29 27 26 25 23 22 22 20 20 18 17 17 16 15 15 15 14 13 13 13 13 13 14 14 13 12 11 11 10 10 10 11 12 12 10 7 6 5 6 9 11 10 10 10 9 10 11 9 8 8 9 9
28 27 28 28 28 27 27 28 28 29 30 31 32 34 33 31 29 28 28 28 28 28 27 27 27 27 28 29 28 28 30 31 33 33 30 29 28 25 24 24 23 22 20 19 18 17 16 15 15 15 13 13 14 14 14 14 13 11 10 10 10 9 8 8 8 9 9 7 6 6 7 8 10 10 8 8 8 7 8 5 4 4 6 8 12
28 27 27 28 28 28 28 28 29 30 31 32 34 37 37 35 32 29 28 27 28 28 28 27 27 27 28 29 28 28 30 33 34 35 34 32 31 28 25 25 26 25 22 21 19 18 17 16 15 15 14 14 14 14 14 14 13 12 10 10 10 8 8 9 8 7 8 7 5 6 8 9 9 9 8 8 7 6 6 5 5 9 12 14 18
29 28 28 29 29 29 29 29 30 31 31 32 36 39 40 41 38 32 28 27 27 28 29 29 28 28 28 29 28 28 30 33 35 36 36 35 33 32 30 27 28 28 26 23 21 20 18 17 16 15 15 15 14 14 14 13 13 12 11 11 10 9 9 10 9 6 6 5 5 6 9 9 8 9 8 7 6 6 6 8 11 14 15 16 17
30 30 30 30 30 31 30 30 30 31 31 32 36 40 41 43 44 39 32 27 27 28 29 30 30 30 29 29 29 29 28 32 35 36 37 38 36 35 34 31 30 30 29 27 24 22 19 18 18 17 16 15 14 14 13 12 12 12 12 12 11 10 10 10 9 7 5 5 5 7 9 8 8 8 7 6 6 6 7 10 13 14 14 15 15
31 32 31 30 30 31 31 30 30 30 31 32 35 39 42 43 45 45 39 30 27 28 30 31 31 31 32 31 31 30 29 31 34 34 34 38 39 37 37 35 32 31 32 31 28 26 23 19 17 18 17 15 15 14 13 13 13 12 12 12 11 11 11 9 8 7 6 7 6 6 8 8 7 7 7 6 6 6 8 10 12 13 14 14 13
30 30 30 30 30 31 31 30 30 30 31 32 34 37 42 44 44 46 44 36 30 29 29 31 31 32 33 33 32 31 29 30 35 35 32 33 37 40 39 36 31 29 30 32 31 29 27 23 20 18 17 16 16 14 13 14 14 12 11 10 9 8 8 7 7 8 10 10 10 7 7 8 6 7 7 6 7 7 8 10 12 15 15 13 12
27 28 28 29 29 30 31 30 31 32 32 33 35 36 40 42 43 46 46 39 32 31 30 31 32 32 33 34 33 33 30 30 34 38 36 31 32 37 38 34 30 27 27 30 31 30 28 26 23 20 18 17 17 17 16 15 14 12 10 8 7 7 6 5 7 10 10 12 14 11 8 6 5 6 7 7 7 9 9 11 13 13 11 11 13
27 28 29 29 30 31 32 32 32 33 32 33 36 36 38 41 43 46 47 39 32 32 31 30 32 34 35 35 33 32 31 31 35 40 40 34 29 30 32 30 29 28 26 26 29 31 30 27 26 24 23 20 17 18 19 18 16 14 11 10 10 9 8 7 7 9 8 10 14 12 7 5 5 6 8 8 8 9 11 10 9 8 9 12 15
27 27 28 29 30 31 32 33 34 33 32 32 36 37 38 40 43 47 46 37 31 32 32 31 32 34 35 37 35 34 33 34 37 40 42 39 31 27 29 29 28 29 27 25 26 29 31 30 28 27 26 24 19 17 20 22 19 16 14 12 12 11 11 10 9 9 9 8 10 11 7 4 5 5 7 9 9 10 10 8 6 8 10 12 13
27 27 27 28 29 30 31 32 34 35 33 32 35 37 38 39 43 47 44 35 32 33 32 31 32 33 35 38 40 40 38 35 37 41 43 42 37 31 30 30 29 29 29 27 25 30 34 33 31 28 27 25 22 19 21 22 21 18 16 14 13 12 11 11 10 9 8 7 8 10 6 3 4 4 6 8 8 8 8 7 8 9 9 10 12
Wind_Direction
194 194 194 185 190 191 179 193 203 172 207 220 118 80 64 50 19 67 15 354 353 3 23 17 42 50 45 33 41 47 356 54 56 111 122 124 138 141 131 118 119 142 160 166 166 175 179 184 187 175 171 178 185 187 188 182 179 183 181 182 184 182 185 184 183 186 187 189 198 202 203 215 229 236 248 255 260 269 272 278 284 281 284 290 295
201 195 188 184 190 201 189 196 208 179 205 97 90 64 43 44 353 11 359 356 4 1 351 16 49 36 27 30 29 4 7 45 50 132 115 122 137 144 144 128 123 137 157 170 172 178 182 183 189 186 182 185 186 186 191 191 188 189 188 189 193 196 200 202 199 199 198 202 212 214 218 233 244 248 255 259 264 269 274 278 280 281 284 286 290
204 187 193 196 195 204 207 220 211 170 195 89 102 74 38 43 358 351 345 353 1 355 344 4 39 20 12 37 34 345 356 5 310 132 118 118 133 146 154 140 128 142 163 175 179 182 183 184 183 186 191 195 191 186 192 197 196 198 199 196 197 202 209 214 215 215 216 219 226 229 233 240 245 250 260 264 264 267 271 275 277 279 283 285 288
220 183 203 206 198 200 204 232 226 167 215 35 65 54 42 52 49 331 340 351 341 348 347 1 15 357 350 17 43 7 347 8 3 117 117 106 127 147 151 146 132 143 163 174 184 187 186 183 176 183 192 195 192 187 193 199 201 204 207 206 204 208 213 218 220 222 227 229 233 239 243 247 250 254 261 267 267 268 271 272 274 277 280 283 287
219 205 213 212 210 208 202 221 216 169 39 36 32 230 204 26 71 318 333 320 331 1 350 357 8 356 357 12 54 20 335 41 53 101 105 89 119 143 144 150 138 131 140 144 175 190 196 188 174 182 192 193 192 191 198 202 205 208 213 216 216 218 219 219 219 223 230 233 237 242 249 256 262 264 265 269 270 271 274 276 278 279 282 285 287
214 213 218 217 217 217 213 221 187 141 187 200 238 236 161 339 319 333 327 316 342 359 352 6 8 1 3 26 69 7 346 62 57 78 87 71 105 135 141 152 152 142 126 104 112 160 194 200 187 184 189 196 194 195 206 207 209 211 216 221 224 229 230 227 224 226 231 234 236 241 251 261 266 268 270 273 274 277 280 283 285 286 286 287 288
212 213 221 222 220 218 219 220 169 146 217 190 241 264 151 325 321 336 311 337 356 343 9 29 15 15 9 108 115 97 33 107 113 80 78 77 99 128 143 151 157 157 141 117 103 89 140 191 198 196 195 200 197 201 209 213 218 219 219 221 227 234 237 235 231 230 234 238 242 247 254 260 263 267 270 272 273 275 280 284 287 288 288 288 290
209 214 221 223 227 225 216 211 178 176 219 169 239 254 205 246 290 334 336 349 348 347 29 52 51 64 253 212 131 59 53 113 125 93 74 83 101 115 137 144 151 152 148 151 151 99 80 130 186 196 198 200 208 218 223 225 230 234 233 229 231 237 239 240 239 238 241 246 250 254 257 260 264 268 269 270 270 271 274 277 281 283 286 287 289
206 213 220 224 232 229 203 177 175 187 191 210 241 235 204 205 243 307 346 343 331 1 28 64 94 197 245 229 82 62 86 91 90 94 83 80 96 106 120 131 138 131 138 157 160 129 82 78 123 177 193 204 220 235 240 238 237 238 242 240 239 242 244 244 244 245 246 251 256 257 259 261 264 270 273 272 271 272 273 274 277 280 283 285 287
205 211 219 228 235 236 213 170 175 187 190 223 239 229 212 207 212 247 317 334 333 5 1 24 46 232 79 99 79 81 157 127 82 92 105 103 110 116 111 113 120 110 120 136 131 127 106 96 111 139 172 204 227 245 243 239 238 232 233 240 244 246 248 248 248 250 249 253 260 259 258 260 261 265 270 270 270 277 281 281 281 283 284 284 286
202 207 215 227 234 233 226 200 191 194 206 229 232 214 201 215 225 231 264 318 339 357 332 16 38 25 67 111 104 69 174 101 91 110 128 122 125 124 115 108 110 106 108 114 116 114 103 119 138 149 168 232 235 239 245 238 230 221 222 232 237 238 245 253 255 260 258 255 261 260 259 262 261 261 264 265 267 272 278 277 277 280 283 283 284
199 205 210 220 230 226 213 207 214 210 218 237 240 213 189 200 222 228 242 282 330 287 329 23 59 57 63 120 126 157 185 83 107 165 142 134 126 117 114 108 102 96 97 100 110 104 93 111 131 141 170 266 253 171 104 95 122 172 202 215 217 224 237 250 253 258 259 256 259 260 262 264 262 261 264 265 268 270 271 274 276 278 280 282 282
198 201 206 212 218 227 215 200 216 218 216 232 241 223 197 196 212 222 231 243 241 202 101 74 112 116 127 153 143 169 167 139 185 189 151 143 131 119 116 115 108 97 90 89 99 101 96 102 98 109 128 121 92 87 93 90 76 99 145 163 163 181 204 223 240 250 256 261 259 254 260 266 262 260 264 268 272 275 274 278 282 283 283 283 282
198 200 203 205 207 215 212 202 217 223 219 227 228 216 215 218 216 220 222 215 231 204 147 173 164 132 145 154 148 172 160 168 207 184 152 144 138 134 113 102 102 102 100 96 99 97 92 86 76 82 85 94 108 95 97 94 72 77 103 118 134 132 137 153 181 216 229 260 270 262 266 275 270 261 264 270 273 278 281 279 283 288 291 290 289
198 199 201 203 206 208 204 201 210 213 214 224 221 210 211 219 218 219 220 201 189 158 181 237 233 121 152 179 156 159 153 197 204 166 147 142 142 134 107 91 90 101 112 111 103 92 85 81 79 83 81 88 100 94 103 104 90 86 89 101 122 120 118 125 130 149 160 160 136 141 194 194 211 241 255 262 259 274 284 285 288 294 297 296 296
199 200 203 201 203 206 203 200 202 200 206 218 216 211 211 214 218 215 219 212 178 150 160 242 282 127 172 234 171 165 176 186 175 150 147 149 152 140 122 114 107 114 115 105 105 102 98 89 83 84 84 90 94 95 99 94 83 81 81 90 104 110 117 123 129 136 133 125 127 131 132 133 138 157 169 152 188 255 279 292 303 308 307 307 308
201 202 205 201 197 202 202 195 193 194 202 214 215 216 216 213 215 211 214 223 185 158 158 186 210 170 220 292 196 197 169 157 154 153 166 161 161 150 141 146 136 127 99 99 114 118 108 101 96 91 82 84 91 99 102 93 86 78 75 88 101 110 118 121 126 126 120 116 115 117 119 122 125 129 133 131 134 163 219 291 318 324 325 324 323
204 203 204 202 196 197 200 196 193 194 200 213 217 217 216 213 214 211 211 216 205 192 174 174 195 218 246 289 299 305 50 136 148 152 181 172 173 164 159 169 157 150 149 135 139 132 120 117 115 107 97 93 94 101 105 104 114 115 96 97 105 113 122 125 126 120 115 114 112 115 117 119 122 122 125 130 136 213 291 308 318 322 323 322 321
205 204 203 203 199 195 198 202 202 199 199 208 216 218 216 213 211 209 207 199 197 213 198 173 174 204 221 224 225 243 30 116 159 155 175 179 196 188 176 179 171 164 172 176 163 144 133 130 128 120 109 108 110 112 113 115 132 139 123 114 116 120 126 128 127 126 126 123 118 116 110 103 98 88 70 47 13 351 341 333 330 328 325 323 318
206 204 204 204 203 199 198 203 208 206 204 208 214 217 215 209 206 206 205 197 193 207 212 182 172 190 208 214 218 218 182 167 171 184 193 178 196 210 191 182 186 181 181 202 173 142 138 148 145 139 132 130 131 128 129 132 139 142 137 133 131 131 133 133 131 128 127 123 115 107 93 80 64 48 30 19 8 359 351 342 335 330 327 323 318
207 204 204 204 206 204 201 204 207 208 209 212 214 213 211 205 204 202 199 201 197 197 209 205 194 184 184 206 222 203 203 197 180 197 216 202 187 192 183 178 191 191 191 218 192 152 160 170 165 160 150 147 154 153 154 158 162 170 168 157 147 145 145 146 143 136 127 116 109 100 85 60 32 12 356 350 344 341 339 335 330 325 322 317 313
208 207 205 205 206 207 207 207 207 207 209 213 213 211 209 204 203 202 199 201 198 194 200 206 216 200 173 188 213 204 207 210 199 200 198 202 216 204 187 183 192 195 199 216 211 204 194 169 173 190 167 160 169 168 173 179 181 191 197 188 174 168 160 159 161 153 151 148 143 149 128 351 332 323 321 318 312 310 308 309 310 309 309 307 304
208 209 209 209 208 208 210 211 211 209 207 209 212 211 210 206 202 202 200 201 198 196 200 200 213 222 186 180 197 205 203 205 218 218 192 188 216 230 201 171 174 187 197 214 211 224 223 180 193 206 171 171 189 186 185 189 193 203 215 217 206 197 189 184 188 188 192 202 214 230 250 269 279 287 293 296 295 292 288 286 288 289 290 292 293
207 208 211 211 210 209 211 213 213 211 208 208 210 212 212 208 204 202 198 201 200 196 201 201 202 215 208 191 195 207 204 204 221 224 209 211 224 242 223 127 146 172 185 204 207 215 219 207 212 215 205 207 205 200 195 193 204 214 220 227 227 221 214 206 205 211 216 220 228 237 246 256 264 272 276 280 280 280 282 281 282 283 283 284 285
208 208 210 209 208 208 210 211 212 212 211 210 209 210 212 208 205 203 198 199 200 196 200 205 202 205 213 206 202 209 206 206 218 210 199 205 222 239 214 174 191 176 174 200 209 207 213 219 216 206 213 224 209 205 208 202 214 225 223 229 243 243 234 227 220 218 224 228 233 242 250 256 263 269 273 277 280 281 282 282 282 282 281 281 280
209 210 210 207 207 207 208 209 211 210 210 210 208 208 210 210 207 204 201 199 197 197 202 209 207 205 212 215 211 213 209 204 212 213 201 189 202 223 204 204 225 181 162 191 214 212 211 214 218 205 205 218 211 208 215 214 222 231 227 227 245 256 251 242 233 227 230 235 241 250 258 265 270 276 280 282 285 286 286 286 285 284 282 280 277
211 211 210 207 206 206 205 207 209 209 208 208 208 207 208 211 211 208 205 200 195 198 205 212 211 206 210 218 218 216 211 206 207 210 213 203 203 212 197 212 246 188 160 182 200 217 221 206 208 204 198 208 217 214 215 219 227 235 235 234 244 258 257 246 237 234 237 240 248 257 265 272 277 282 286 287 288 288 288 288 288 288 287 286 283
213 211 209 206 205 203 203 205 206 207 207 207 207 208 208 211 213 212 209 204 197 198 205 212 213 209 209 213 220 221 209 209 212 208 214 218 212 211 204 208 227 212 189 193 194 208 214 204 195 189 188 197 209 215 215 217 228 238 242 240 238 245 249 244 237 238 241 245 251 260 267 273 277 281 286 290 291 291 291 291 291 291 292 292 291
213 211 208 206 204 203 202 203 204 205 206 207 207 207 207 210 213 213 212 207 200 199 203 210 213 211 210 209 214 222 214 208 215 212 210 218 216 213 212 213 222 232 221 203 205 214 212 205 184 174 183 194 198 207 209 210 223 230 231 230 226 230 239 244 241 238 241 246 253 261 267 269 271 278 286 290 291 292 292 293 294 295 295 296 296
212 212 209 206 204 204 203 202 203 204 205 206 207 206 206 210 212 213 213 208 203 201 201 208 214 211 211 209 207 215 216 208 212 214 208 208 214 215 214 214 216 227 239 226 217 224 230 243 200 174 177 188 196 200 198 203 217 218 215 222 221 227 237 244 247 242 240 246 252 258 262 263 267 276 284 285 286 287 288 290 291 293 295 296 297
211 210 209 207 205 204 203 204 204 204 204 205 206 205 206 209 210 212 212 208 205 204 200 204 212 212 211 211 207 208 213 209 209 213 209 205 209 213 214 215 212 216 232 239 228 221 227 245 225 173 168 183 196 198 194 199 214 213 208 211 216 227 238 242 245 245 241 244 250 253 256 260 267 275 280 281 282 283 284 286 289 291 292 293 295
209 209 208 208 206 205 204 205 206 205 204 204 204 204 206 208 210 211 210 207 206 206 203 203 207 210 212 212 208 206 207 208 208 209 209 206 208 212 213 213 213 213 217 227 238 230 222 232 231 199 187 190 191 198 197 194 209 216 206 203 216 227 232 236 243 246 245 246 248 250 255 263 270 276 279 280 281 282 283 286 288 290 291 291 291
208 208 208 207 206 206 206 207 206 206 204 204 203 203 206 208 209 211 210 206 206 206 205 204 205 208 211 211 210 206 204 205 206 207 208 205 205 211 213 211 212 212 209 217 230 229 221 225 233 230 209 191 189 199 202 197 203 214 210 207 218 223 223 227 236 244 247 248 251 254 259 270 278 281 282 281 281 283 285 288 290 291 290 288 287
208 208 208 207 206 205 206 207 206 206 204 204 203 203 206 208 208 210 210 206 205 207 207 206 205 206 209 210 209 206 205 206 206 207 208 206 205 208 211 211 212 212 208 211 221 229 226 219 228 238 215 197 203 201 202 209 207 204 208 212 217 222 225 231 238 244 246 248 254 258 263 275 283 283 282 281 281 284 287 290 292 292 289 286 285
207 208 208 206 205 204 205 206 205 205 204 204 205 205 206 208 209 210 209 206 205 206 209 209 207 206 208 209 208 206 205 206 207 209 209 208 207 208 210 210 212 214 210 209 215 227 232 219 217 228 215 206 217 208 203 215 213 205 210 215 218 224 230 238 243 250 251 250 252 257 265 278 285 283 280 281 283 286 290 291 290 289 288 287 286
207 207 207 207 205 203 204 205 204 204 204 203 205 207 206 207 209 211 210 207 206 207 209 211 209 207 207 207 207 206 204 205 206 208 210 210 208 208 210 209 210 214 211 209 213 222 233 228 217 224 223 214 217 216 208 212 214 212 214 218 223 228 234 241 246 251 254 252 253 259 267 281 290 288 283 284 287 290 291 291 291 291 290 290 290
208 207 206 205 205 203 203 204 204 204 205 204 205 206 207 207 209 211 211 209 208 207 209 211 211 209 208 208 207 205 204 205 205 206 207 209 209 209 208 207 207 211 212 210 211 214 227 235 224 222 228 222 218 218 213 211 215 216 218 223 227 230 235 242 248 251 251 253 258 261 268 281 290 286 282 291 296 295 294 294 294 294 293 292 292
209 208 206 204 205 205 203 203 204 204 205 205 206 207 209 209 208 210 211 210 209 208 208 211 213 212 210 209 207 205 204 204 205 205 205 205 208 209 208 207 204 205 210 210 209 211 219 230 230 223 222 222 221 220 215 215 219 218 220 225 227 231 237 241 248 252 248 249 252 254 264 275 278 274 284 297 299 296 299 301 300 299 297 293 290
209 209 207 204 204 205 204 204 205 205 205 206 207 207 209 210 209 209 210 211 211 210 209 211 214 215 213 210 209 207 206 205 205 204 203 202 205 208 208 207 204 203 207 209 209 211 214 219 226 226 223 221 222 224 220 218 224 227 225 226 229 235 236 234 239 243 245 252 256 261 264 260 263 281 291 294 292 293 301 305 306 309 302 290 288
209 209 208 206 204 205 205 205 205 205 205 207 208 208 208 210 211 210 210 211 211 212 211 211 214 218 217 214 213 211 208 207 206 204 202 200 200 203 206 205 205 203 205 207 207 210 214 217 220 223 224 222 221 225 220 214 221 227 226 228 237 240 235 236 240 240 243 252 264 278 272 252 265 287 288 283 281 284 293 301 304 303 286 275 282
208 209 210 208 206 205 206 206 206 207 207 208 209 209 208 209 210 211 211 211 212 213 213 212 214 218 221 219 217 215 213 210 209 206 204 202 199 199 200 201 203 204 204 206 206 208 212 215 218 220 221 222 220 219 217 214 219 226 227 228 238 241 235 240 246 241 243 253 269 285 283 268 280 289 284 279 280 283 293 298 295 281 264 264 281
208 207 209 210 209 207 207 207 208 209 210 211 211 211 210 209 209 211 212 212 212 213 214 214 214 216 221 224 222 219 217 215 213 210 207 205 202 200 199 199 200 200 203 205 206 207 210 213 217 216 216 221 220 218 222 224 222 226 227 224 232 240 235 238 242 232 232 247 264 272 276 280 284 284 282 281 281 287 294 277 227 250 280 295 306
208 207 208 210 211 210 209 209 210 212 213 213 213 212 212 212 210 210 212 213 212 212 213 214 214 214 219 225 225 222 220 217 215 213 210 208 206 203 202 201 201 200 201 204 205 204 207 212 214 214 216 221 223 224 228 230 226 225 224 221 226 233 235 244 251 232 221 232 246 261 272 276 274 273 275 276 278 285 279 246 250 286 299 303 308
206 207 208 209 210 212 211 211 213 216 217 216 214 213 214 214 213 212 212 213 212 212 212 213 213 213 215 221 224 223 220 217 216 214 212 211 210 208 206 204 205 205 204 205 205 205 207 211 213 215 218 222 225 227 227 227 225 222 220 220 222 227 237 250 256 245 228 224 233 259 273 275 268 268 272 274 285 293 280 274 288 293 294 300 308
205 206 207 207 209 211 212 213 215 217 219 219 217 215 215 216 216 214 212 214 214 213 213 212 212 212 212 215 220 221 219 216 213 211 211 212 212 213 212 210 209 209 210 209 208 208 209 212 215 217 218 220 224 227 226 224 223 219 214 215 219 227 238 248 252 249 225 202 221 258 271 272 272 277 285 292 297 298 286 284 290 293 297 308 316
204 206 208 207 208 210 212 214 216 218 221 222 220 217 217 217 217 216 214 214 216 218 217 214 212 212 211 212 216 217 217 214 209 204 205 209 211 212 214 213 212 212 213 214 213 213 213 215 217 218 218 219 223 226 224 219 217 213 208 212 222 231 236 240 241 238 229 218 224 247 262 271 280 284 294 307 306 298 287 285 292 299 303 307 311
205 207 208 208 209 211 212 213 217 221 224 225 223 220 219 218 219 217 215 214 216 220 221 218 216 215 213 212 213 214 212 210 206 201 199 202 207 210 212 212 210 210 212 215 216 217 218 219 220 220 220 221 223 224 221 212 208 206 204 210 220 224 227 228 224 235 242 226 207 215 249 266 282 292 300 312 310 301 293 290 293 295 295 296 306
208 207 209 212 213 214 214 214 219 224 227 227 225 223 220 219 219 218 216 214 215 219 221 220 220 220 218 213 211 213 211 208 206 204 201 197 200 207 209 208 207 208 211 214 216 217 218 220 221 222 222 223 222 218 214 207 201 197 194 195 196 192 200 215 232 250 244 207 195 211 241 254 278 303 307 311 309 301 294 289 285 281 282 294 308
209 209 211 215 218 219 218 217 219 224 227 227 227 225 222 219 217 216 215 213 215 219 221 220 220 222 224 219 212 211 211 209 207 205 204 199 195 200 204 202 203 207 209 213 216 217 217 218 220 221 222 223 222 215 209 203 197 190 186 189 194 194 197 206 232 255 240 192 189 201 215 239 287 310 307 306 307 297 290 287 281 276 287 301 306
211 213 213 216 218 219 220 219 218 222 225 226 227 227 224 220 217 215 213 211 214 219 221 222 221 221 225 225 219 212 210 210 209 206 205 201 195 195 200 199 200 204 205 206 209 211 212 214 217 219 221 225 227 220 212 209 206 198 189 193 204 207 209 217 230 243 241 214 193 187 190 239 287 303 303 303 301 290 285 288 289 288 293 300 306
212 215 215 217 219 218 220 221 220 221 223 225 226 226 225 222 218 215 213 210 214 218 219 221 223 222 225 227 224 219 214 211 209 207 205 203 197 195 199 199 199 202 201 198 197 199 202 207 212 215 217 221 223 218 213 212 212 208 199 200 213 218 222 233 230 224 235 226 190 183 195 240 274 292 297 298 297 291 286 287 286 287 291 297 302